Location: Ravensburg
(48.5621°N, 13.4088°E)
Time: 12:42:37
(UTC+02:00)

ISS - Pass Details

Date: 05 January 2018
Orbit: 402 x 408 km, 51.6° (Epoch: 20 July)

Event Time Altitude Azimuth Distance (km) Brightness Sun altitude
Exits shadow 04:41:55 11° 69° (ENE) 1,453 -0.3 -31.4°
Drops below altitude 10° 04:42:02 10° 69° (ENE) 1,499 -0.2 -31.4°
Enters shadow 05:39:10 -67° 259° (WSW) 12,163 3.6 -22.0°
